Weather in Kursenai

Lithuania     55°59′51″N   22°56′09″E
temp.,
°C
wind,
m/s
gust,
m/s
humid.,
%
clouds,
%
prec.,
mm/h
press.,
hPa
HPBL,
m
27 february, sat
sat2723:00+2w510920 0.0 1016266
02:00+3wnw5139033 0.0 1018451
05:00+1nw7158928 0.0 1018516
08:000nw6149014 0.0 1021508
11:00+3nnw712780 0.0 1023787
14:00+5nnw711650 0.0 10251105
17:00+4nw512690 0.0 1026714
20:00+1nw511860 0.0 1028311
28 february, sun
sun2823:000wnw599150 0.0 1028283
02:00+1wnw4108775 0.0 1028313
05:00+2wnw5118190 0.0 1027358
08:00+2w6147995 0.0 1025384
11:00+5nw71274100 0.0 1025751
14:00+5nw6128196 0.2 1025744
17:00+5nw5108494 0.0 1025460
20:00+2nw4109252 0.0 1027281
1 march, mon
mon123:00+1nw37950 0.0 1028152
02:00+1nw48950 0.0 1030171
05:00+1nw48950 0.0 1029194
08:00+1wnw48920 0.0 1030160
11:00+7w59720 0.0 1029407
14:00+10w611640 0.0 1028604
17:00+7w7146928 0.0 1026587
20:00+3w5119131 0.0 1027413
2 march, tue
tue223:00+2wnw4109212 0.0 1027282
02:00+1wnw36926 0.0 1028119
05:00+1wnw358822 0.0 102799
08:00+1w478627 0.0 1028160
11:00+6w46690 0.0 1028269
14:00+9wnw57600 0.0 1028564
17:00+7wnw48725 0.0 1027324
20:00+3wnw36892 0.0 1028141
3 march, wed
wed323:00+2wnw34910 0.0 102978
02:00+1wnw33900 0.0 102948
05:00+1w33917 0.0 102849
08:00+1w23929 0.0 102883
11:00+5wsw23760 0.0 1028258
14:00+7sw33670 0.0 1026518
17:00+4sw46800 0.0 1024442
20:00+3wsw478529 0.0 1022508